PDT,Max TemperatureF,Mean TemperatureF,Min TemperatureF,Max Dew PointF,MeanDew PointF,Min DewpointF,Max Humidity, Mean Humidity, Min Humidity, Max Sea Level PressureIn, Mean Sea Level PressureIn, Min Sea Level PressureIn, Max VisibilityMiles, Mean VisibilityMiles, Min VisibilityMiles, Max Wind SpeedMPH, Mean Wind SpeedMPH, Max Gust SpeedMPH,PrecipitationIn, CloudCover, Events, WindDirDegrees
2012-10-1,100,79,59,30,27,24,30,16,8,30.04,29.96,29.89,10,10,10,9,5,,0.00,0,,175
2012-10-2,100,78,57,30,27,24,29,16,7,29.94,29.86,29.78,10,10,10,12,5,,0.00,0,,188
2012-10-3,99,80,62,44,33,27,29,20,9,29.91,29.84,29.80,10,10,10,29,10,37,0.00,4,,188
2012-10-4,93,75,57,38,35,31,42,25,12,30.00,29.92,29.86,10,10,10,12,5,,0.00,2,,212
2012-10-5,91,72,55,37,33,29,37,25,13,30.00,29.92,29.86,10,10,10,16,4,20,0.00,4,,190
2012-10-6,90,70,52,37,34,30,49,28,12,29.93,29.86,29.78,10,10,10,12,4,,0.00,0,,180
2012-10-7,87,68,50,43,35,30,50,31,14,29.93,29.86,29.81,10,10,10,12,4,16,0.00,0,,191
2012-10-8,89,70,51,40,31,12,52,27,6,29.92,29.86,29.79,10,10,10,20,9,28,0.00,0,,212
2012-10-9,82,66,52,43,34,26,43,29,17,29.92,29.87,29.83,10,10,10,16,5,,0.00,4,,201
2012-10-10,77,64,52,41,36,24,54,36,15,29.94,29.87,29.80,10,10,10,14,7,17,0.00,1,,182
2012-10-11,72,64,55,48,40,34,77,44,27,29.89,29.84,29.77,10,10,10,23,10,37,0.00,5,Rain,216
2012-10-12,72,60,48,50,44,40,90,61,33,30.11,29.99,29.88,10,10,9,17,7,,0.03,2,Rain,186
2012-10-13,80,62,44,43,41,37,82,50,26,30.22,30.15,30.08,10,10,10,8,1,,0.00,0,,203
2012-10-14,84,66,48,38,35,31,61,35,17,30.17,30.09,30.03,10,10,10,8,5,,0.00,0,,196
2012-10-15,87,66,46,36,32,29,51,30,15,30.04,29.98,29.89,10,10,10,10,4,,0.00,2,,200
2012-10-16,91,69,48,44,35,27,47,30,12,29.95,29.86,29.75,10,10,10,10,3,,0.00,0,,210
2012-10-17,90,71,53,36,33,29,45,28,14,29.97,29.89,29.83,10,10,10,9,3,,0.00,0,,149
2012-10-18,89,70,52,32,26,18,40,22,8,30.07,30.01,29.95,10,10,10,8,4,,0.00,0,,189
2012-10-19,90,68,46,47,28,18,42,24,10,30.03,29.92,29.81,10,10,10,10,5,,0.00,0,,187
2012-10-20,89,70,53,45,42,38,59,39,19,29.80,29.71,29.60,10,10,10,18,5,23,0.00,0,,191
2012-10-21,82,70,59,49,38,18,58,34,16,29.74,29.68,29.63,10,10,10,31,9,39,0.00,0,,206
2012-10-22,75,66,57,43,34,13,59,34,14,29.84,29.78,29.70,10,10,10,23,19,32,0.00,3,,202
2012-10-23,71,60,51,39,29,23,49,32,17,29.83,29.79,29.74,10,10,10,29,18,38,0.00,1,,221
2012-10-24,73,60,45,31,26,18,44,30,13,30.06,29.93,29.83,10,10,10,16,10,23,0.00,0,,232
2012-10-25,72,54,37,26,23,20,50,32,17,30.16,30.11,30.06,10,10,10,12,4,,0.00,0,,189
2012-10-26,71,56,42,25,21,17,44,28,16,30.27,30.18,30.11,10,10,10,10,5,,0.00,0,,204
2012-10-27,78,58,39,25,20,15,41,26,14,30.12,30.05,29.96,10,10,10,8,3,,0.00,0,,213
2012-10-28,82,62,42,29,22,17,40,24,13,30.09,30.02,29.95,10,10,10,12,3,,0.00,0,,185
2012-10-29,82,62,43,22,20,16,38,21,10,30.14,30.06,30.02,10,10,10,9,3,,0.00,0,,164
2012-10-30,84,64,45,23,19,16,36,20,10,30.12,30.03,29.96,10,10,10,9,3,,0.00,0,,190
2012-10-31,84,63,42,22,18,13,37,20,7,30.06,29.97,29.90,10,10,10,15,4,18,0.00,3,,186